Date,TemperatureHighF,TemperatureAvgF,TemperatureLowF,DewpointHighF,DewpointAvgF,DewpointLowF,HumidityHigh,HumidityAvg,HumidityLow,PressureMaxIn,PressureMinIn,WindSpeedMaxMPH,WindSpeedAvgMPH,GustSpeedMaxMPH,PrecipitationSumIn
2014-1-1,26,20,8,18,8,-5,81,60,43,29.89,29.65,22,10,40,0.00
2014-1-2,41,22,6,8,1,-7,60,42,21,29.93,29.81,5,2,9,0.00
2014-1-3,45,29,14,12,5,-3,51,36,22,29.81,29.49,18,7,39,0.00
2014-1-4,31,15,2,17,2,-12,78,57,41,29.59,29.42,16,7,30,0.00
2014-1-5,5,2,-2,-8,-14,-20,62,45,31,29.74,29.57,19,11,39,0.00
2014-1-6,23,9,-4,-4,-12,-21,57,38,21,29.90,29.73,11,4,27,0.00
2014-1-7,50,20,6,15,4,-8,76,51,21,29.87,29.66,11,2,27,0.00
2014-1-8,37,22,17,18,11,-28,76,63,10,29.73,29.65,6,1,11,0.01
2014-1-9,39,20,13,15,10,4,75,67,29,29.67,29.46,3,0,52,0.04
2014-1-10,22,16,9,10,2,-7,66,51,43,29.68,29.46,21,7,42,0.01
2014-1-11,48,32,19,20,14,9,71,49,28,29.79,29.55,10,4,27,0.00
2014-1-12,35,21,12,16,5,-5,73,52,35,29.69,29.42,22,11,40,0.04
2014-1-13,32,19,13,10,4,-1,67,51,33,29.83,29.67,18,5,33,0.00
2014-1-14,25,21,15,11,7,3,69,54,43,29.99,29.77,24,13,49,0.00
2014-1-15,38,23,13,15,4,-2,63,45,24,29.98,29.84,15,5,34,0.00
2014-1-16,33,21,10,4,1,-4,58,42,24,29.92,29.84,13,5,24,0.00
2014-1-17,36,22,12,8,2,-2,58,43,25,29.90,29.80,11,4,20,0.00
2014-1-18,40,20,6,10,1,-6,63,44,22,29.95,29.84,8,2,16,0.00
2014-1-19,49,23,6,15,3,-6,63,44,21,29.94,29.82,6,2,10,0.00
2014-1-20,37,24,9,11,2,-7,54,39,21,30.04,29.81,12,4,25,0.00
2014-1-21,42,20,6,6,-5,-16,53,33,20,30.03,29.88,6,2,11,0.17
2014-1-22,46,21,5,7,-6,-20,51,30,20,29.88,29.64,8,2,14,0.00
2014-1-23,28,14,-1,8,-5,-17,65,43,22,29.99,29.69,10,2,17,0.00
2014-1-24,36,16,-3,0,-10,-20,47,31,20,30.03,29.94,9,2,18,0.00
2014-1-25,44,24,9,14,2,-11,56,38,22,29.99,29.77,9,2,37,0.14
2014-1-26,42,26,11,12,7,1,65,45,24,29.78,29.61,12,3,25,0.00
2014-1-27,27,21,10,14,7,-2,74,55,39,29.63,29.51,17,6,36,0.00
2014-1-28,21,10,-5,-2,-13,-21,57,36,21,29.77,29.59,19,6,34,0.00
2014-1-29,40,24,5,24,4,-20,80,45,21,29.77,29.41,9,2,14,0.00
2014-1-30,31,22,19,26,16,12,87,76,61,29.50,29.38,22,2,31,0.00
2014-1-31,29,19,13,20,11,4,75,70,58,29.44,29.34,5,1,13,0.00